Vertical_Velocity
1 1 -1 -1 -1 1 -1 -2 -1 -2 -2 -1 1 2 1 -0 -1 1 -5 3 -3 -1 -1 0 -0 0 1 0 2 2 -15 -5 1 4 19 7 2 1 -1 -7 -6 1 5 8 1
-2 -1 -1 1 -1 -1 1 2 0 -1 -4 -5 -4 -2 -1 1 0 -0 -6 -1 -0 -1 -0 2 -1 -3 -3 2 -6 -7 -5 1 4 5 3 3 -5 -7 -2 -1 -6 -4 3 10 5
-3 -3 -3 -2 -1 1 -0 -1 -2 -2 -1 -4 -4 -4 -4 -2 -2 6 -0 -1 1 1 -1 6 -5 2 -1 1 -1 1 -4 8 6 -0 2 3 -5 -5 -2 -7 -4 6 6 12 3
-0 -2 -2 1 -1 -2 -2 -2 -0 -3 -2 -3 -3 -4 -2 -1 -8 -6 -3 -2 1 2 -0 2 0 -3 6 -3 2 -9 -0 6 10 4 2 3 -1 -2 -0 3 2 1 -5 4 9
-3 -3 -2 -3 -4 -3 -3 -3 -3 -2 -1 -3 -2 -2 -2 1 -1 -2 1 2 1 3 2 1 2 1 2 1 2 -11 6 6 10 -5 4 2 -3 -2 -0 -1 2 4 2 1 7
-3 -1 0 -2 -1 -1 -3 -2 -2 0 -0 1 -0 -2 -2 -3 2 1 2 2 3 1 2 4 1 2 3 2 -0 2 4 5 1 3 1 -0 -1 -1 7 2 0 0 1 1 3
-2 2 -1 0 1 0 -1 0 -0 -1 -1 -1 -2 -5 -2 -1 -2 0 2 3 2 1 2 4 -0 2 10 7 -5 3 2 6 -0 10 5 5 1 -5 2 2 -0 1 0 -2 -1
0 -2 -1 2 1 -1 -2 -0 -1 -1 -3 -2 -2 -2 -0 -1 -1 2 -0 2 1 2 1 2 0 -0 5 1 -0 1 -1 0 7 1 5 4 15 6 5 3 1 0 0 -4 -2
-1 -1 -1 -2 0 -1 -2 -3 -2 -2 -3 -2 -2 0 -2 -3 0 -2 4 1 2 2 3 2 0 1 1 5 -2 0 3 6 0 2 1 5 11 -10 0 -4 -5 -4 -2 -2 1
-3 -2 -4 -2 -0 -2 -1 -4 -2 -1 -2 -4 2 -4 1 -1 -1 -2 -0 1 1 2 3 3 -0 -0 1 -0 3 4 6 8 6 6 5 4 2 -1 -1 2 -1 -1 4 4 2
-2 -1 -2 -3 -4 1 -2 -3 -4 -2 5 4 -1 -1 0 -1 -2 -2 -1 0 2 2 -0 -1 -1 3 5 2 1 -1 0 -1 3 5 7 -9 -1 1 1 0 -2 1 3 3 1
-3 -2 -1 -0 -2 -1 0 -3 -5 2 -8 1 -1 -3 -0 0 0 -3 0 -1 0 1 1 2 4 -1 2 3 4 2 3 2 5 5 -2 3 3 1 0 -0 -1 1 -1 1 1
1 -3 -2 1 1 -2 -5 -2 -3 -5 3 0 0 -1 -1 -1 1 2 -2 1 2 1 2 1 5 1 1 3 2 2 1 1 6 2 3 6 -1 -1 -0 3 0 -1 0 2 2
-1 0 -2 -2 -0 2 2 -1 -4 -1 -7 -1 -2 -2 -3 -2 2 1 -0 -0 0 2 0 -1 4 1 1 4 3 2 4 4 6 -1 -1 3 -2 2 3 0 -1 1 1 -0 0
-1 -1 3 -2 -1 -6 -4 -2 -3 -3 -9 -8 -8 -9 -2 4 1 7 1 -1 1 2 -0 3 2 4 1 3 2 1 6 5 6 4 5 -3 -2 -3 -3 -2 -1 -1 -0 -0 1
-2 2 -4 -1 -2 -2 -3 -2 -1 -2 -5 -7 -2 -3 2 -1 -3 2 1 1 1 2 1 1 1 2 3 3 1 4 5 4 4 2 -10 7 -0 -1 0 2 2 3 -1 -3 -1
-4 1 -2 -4 2 -0 -2 -5 -3 2 -8 -6 -1 1 -2 0 -1 3 2 -3 -2 0 5 3 1 1 2 4 2 1 4 -0 3 -0 -13 7 4 -8 -2 0 -0 1 -1 -1 -1
-3 -2 2 -3 -2 -2 -2 -3 -2 0 -0 -6 -0 -2 -1 2 -1 -2 3 1 1 -0 2 2 3 4 3 0 3 4 1 -1 1 -5 5 10 -10 -18 -2 3 1 1 1 1 1
-1 -4 -1 -0 -1 -2 -2 -2 0 -2 0 4 -5 -5 2 -2 -3 0 1 -1 -0 1 1 -0 -0 3 2 3 5 7 0 9 4 3 7 3 -7 3 1 4 5 3 1 1 1
-0 -1 4 -1 2 -1 -0 -0 -1 -1 -2 -2 -3 1 -1 1 -1 -2 -0 0 -1 1 1 1 -2 2 3 3 2 1 5 4 5 3 0 -10 -4 -11 6 1 -2 1 -1 -2 -1
-1 -3 -0 3 -1 -2 -1 -0 1 0 -1 -4 -2 -1 -1 -2 0 1 -0 -0 -1 1 0 1 1 1 3 4 3 2 -1 1 4 2 -1 -2 -11 3 1 -2 1 -0 -3 -3 -1
2 1 -1 1 -1 -1 -1 0 0 -1 -1 -2 -1 1 -1 -1 -2 0 -1 -0 -1 -1 -0 0 1 1 2 2 3 2 2 2 2 1 -2 -5 -3 -1 -2 -1 2 1 2 -1 1
-1 3 5 4 -3 1 0 1 -0 -1 -0 -2 -3 -1 -2 -3 -1 0 0 -0 -1 -1 -1 1 3 1 2 3 3 2 3 3 1 1 -3 1 -3 4 3 1 1 -0 1 1 -1
1 -6 -6 2 3 2 2 1 1 1 0 -0 -1 -2 -0 -2 -1 -1 -0 -0 -0 -0 -1 0 -0 -0 1 2 1 2 1 0 -1 1 3 -2 2 3 4 1 -1 2 2 -0 0
5 1 -2 -1 -1 -1 -0 0 0 2 1 0 1 -1 -2 -2 0 0 0 1 -0 -0 -1 1 1 -0 -0 1 1 1 1 1 1 1 -2 4 1 3 1 -2 1 -0 0 -1 -2
4 -1 -4 1 -0 1 1 3 2 2 2 1 -0 -1 0 -1 -1 -1 -1 -0 2 0 -0 0 0 -0 0 1 2 1 1 1 1 1 1 1 2 1 1 -1 -0 -1 -1 -2 0
-5 2 3 3 1 1 1 1 3 2 2 3 0 -1 -1 0 0 0 0 -1 0 -1 -1 -1 0 -0 -0 1 0 0 1 1 1 2 1 0 1 -0 -1 1 -1 -1 -0 -1 -0
Height
5757 5754 5750 5747 5744 5741 5737 5734 5731 5727 5724 5720 5717 5713 5710 5706 5703 5701 5697 5696 5693 5690 5688 5687 5686 5686 5685 5686 5686 5685 5684 5692 5697 5700 5706 5707 5709 5712 5716 5720 5724 5731 5737 5741 5742
5754 5750 5746 5743 5739 5735 5731 5727 5723 5719 5716 5712 5708 5704 5700 5696 5692 5688 5685 5682 5679 5676 5675 5674 5672 5672 5672 5672 5671 5671 5673 5681 5686 5687 5691 5693 5696 5700 5705 5709 5714 5719 5728 5732 5732
5749 5745 5742 5737 5733 5729 5725 5721 5716 5712 5707 5703 5698 5693 5689 5683 5679 5675 5670 5667 5664 5661 5660 5659 5657 5658 5658 5657 5658 5659 5663 5668 5671 5673 5677 5681 5684 5689 5693 5698 5705 5710 5715 5720 5722
5745 5740 5736 5731 5726 5722 5717 5713 5707 5702 5696 5691 5685 5680 5675 5670 5665 5659 5656 5652 5649 5646 5644 5643 5641 5642 5644 5643 5643 5643 5649 5652 5656 5659 5663 5669 5674 5678 5683 5689 5693 5697 5702 5708 5715
5739 5734 5729 5724 5719 5715 5709 5704 5697 5691 5684 5678 5672 5666 5660 5655 5648 5642 5636 5633 5631 5629 5627 5626 5625 5626 5628 5628 5627 5630 5635 5637 5643 5644 5650 5657 5663 5667 5672 5676 5681 5686 5690 5696 5702
5734 5728 5722 5717 5711 5705 5700 5693 5686 5678 5671 5664 5658 5651 5644 5637 5629 5623 5618 5615 5613 5611 5609 5609 5608 5609 5611 5611 5612 5617 5620 5624 5628 5634 5638 5645 5651 5656 5662 5666 5671 5675 5679 5685 5692
5728 5722 5716 5710 5703 5697 5690 5682 5675 5667 5660 5652 5644 5635 5627 5620 5612 5607 5602 5598 5595 5593 5593 5593 5592 5593 5596 5597 5598 5603 5607 5610 5615 5622 5628 5632 5638 5644 5650 5654 5658 5663 5668 5675 5681
5722 5716 5709 5702 5695 5688 5680 5673 5665 5657 5648 5639 5630 5620 5612 5605 5599 5593 5587 5583 5579 5578 5577 5577 5577 5579 5582 5584 5587 5591 5594 5598 5605 5610 5618 5621 5630 5631 5636 5642 5647 5652 5657 5662 5670
5715 5708 5701 5694 5687 5679 5671 5663 5655 5645 5635 5626 5616 5607 5599 5591 5584 5577 5572 5568 5565 5564 5564 5564 5565 5567 5569 5573 5576 5579 5585 5590 5594 5598 5603 5608 5612 5618 5625 5629 5634 5639 5644 5651 5658
5709 5702 5694 5685 5678 5670 5662 5653 5643 5634 5623 5613 5604 5596 5586 5578 5570 5564 5559 5555 5552 5551 5552 5553 5553 5556 5559 5563 5568 5572 5576 5581 5584 5589 5592 5594 5600 5608 5613 5619 5624 5630 5636 5643 5649
5703 5695 5687 5678 5669 5661 5652 5643 5634 5624 5611 5601 5592 5583 5573 5566 5558 5552 5548 5545 5543 5541 5540 5541 5544 5549 5552 5553 5556 5560 5564 5569 5573 5578 5580 5584 5590 5597 5603 5608 5614 5621 5626 5631 5637
5694 5686 5678 5669 5659 5650 5642 5632 5622 5611 5599 5590 5580 5571 5563 5555 5548 5542 5539 5537 5535 5533 5532 5535 5537 5538 5541 5544 5548 5551 5556 5561 5565 5566 5570 5575 5580 5587 5593 5598 5604 5610 5616 5621 5626
5686 5677 5668 5659 5650 5640 5630 5621 5610 5598 5588 5578 5568 5560 5552 5546 5539 5534 5531 5529 5528 5526 5526 5527 5530 5530 5533 5536 5539 5543 5548 5552 5557 5558 5563 5568 5571 5577 5583 5589 5594 5599 5604 5610 5616
5679 5668 5658 5650 5642 5631 5620 5609 5598 5586 5577 5569 5559 5550 5543 5536 5531 5526 5522 5521 5518 5518 5517 5518 5521 5522 5524 5528 5531 5535 5539 5543 5546 5549 5555 5558 5563 5568 5573 5578 5583 5587 5592 5598 5603
5670 5659 5649 5638 5630 5620 5610 5598 5587 5577 5566 5558 5548 5541 5534 5528 5522 5518 5513 5509 5509 5508 5509 5511 5512 5514 5515 5519 5522 5527 5530 5534 5538 5541 5545 5548 5553 5558 5563 5568 5573 5577 5581 5586 5593
5660 5649 5640 5630 5619 5609 5599 5588 5577 5568 5556 5547 5539 5531 5525 5516 5512 5508 5504 5502 5500 5498 5499 5500 5503 5506 5508 5511 5513 5518 5522 5525 5528 5531 5533 5540 5544 5546 5553 5560 5564 5568 5571 5575 5581
5651 5641 5630 5620 5611 5600 5588 5578 5569 5558 5548 5539 5530 5522 5515 5508 5503 5499 5496 5491 5490 5489 5489 5490 5493 5496 5499 5503 5506 5509 5512 5514 5518 5519 5524 5531 5533 5536 5543 5548 5553 5557 5561 5566 5570
5642 5633 5623 5611 5601 5590 5579 5569 5559 5548 5538 5529 5521 5513 5506 5499 5493 5490 5487 5484 5481 5480 5480 5480 5483 5486 5490 5494 5498 5502 5505 5507 5509 5513 5518 5522 5521 5527 5535 5540 5543 5547 5551 5556 5560
5634 5623 5613 5601 5590 5579 5569 5558 5548 5538 5530 5521 5512 5504 5498 5491 5485 5482 5478 5476 5474 5473 5473 5472 5473 5475 5479 5483 5489 5493 5496 5502 5504 5506 5509 5511 5515 5519 5525 5529 5534 5538 5541 5545 5549
5625 5614 5604 5592 5582 5571 5560 5549 5539 5530 5521 5513 5505 5498 5490 5484 5479 5474 5471 5469 5467 5466 5465 5466 5466 5467 5469 5473 5477 5480 5487 5491 5494 5495 5497 5499 5504 5508 5515 5519 5522 5527 5530 5533 5537
5615 5604 5594 5583 5572 5561 5550 5541 5531 5522 5514 5506 5498 5490 5484 5478 5473 5470 5467 5465 5462 5461 5459 5459 5459 5461 5462 5464 5467 5471 5474 5478 5483 5486 5487 5490 5494 5500 5504 5508 5511 5515 5518 5521 5524
5607 5597 5584 5573 5563 5551 5542 5532 5524 5514 5506 5500 5492 5485 5479 5473 5469 5466 5463 5460 5458 5456 5454 5453 5453 5454 5455 5456 5459 5461 5465 5468 5471 5475 5477 5480 5485 5489 5493 5497 5500 5503 5507 5510 5513
5600 5590 5578 5566 5554 5543 5532 5524 5515 5507 5500 5493 5487 5481 5475 5471 5467 5463 5459 5457 5454 5452 5450 5449 5448 5448 5449 5451 5452 5454 5457 5459 5462 5465 5467 5471 5475 5479 5482 5486 5489 5492 5496 5500 5503
5591 5579 5568 5558 5546 5535 5525 5517 5509 5501 5495 5489 5483 5478 5473 5469 5464 5460 5457 5454 5451 5448 5446 5445 5444 5444 5444 5445 5446 5447 5448 5450 5453 5456 5459 5462 5465 5469 5472 5475 5478 5482 5484 5488 5491
5582 5570 5557 5545 5534 5524 5516 5509 5501 5495 5489 5484 5479 5475 5470 5466 5462 5458 5455 5451 5449 5446 5444 5442 5441 5440 5439 5439 5440 5441 5442 5443 5445 5448 5450 5454 5456 5459 5461 5464 5467 5470 5473 5475 5477
5574 5561 5547 5535 5525 5517 5509 5502 5495 5489 5484 5480 5475 5471 5467 5463 5459 5455 5452 5448 5446 5443 5441 5439 5437 5436 5436 5435 5435 5436 5437 5438 5439 5440 5442 5444 5447 5449 5451 5453 5456 5459 5461 5463 5465
5566 5553 5538 5528 5518 5510 5503 5495 5489 5483 5479 5474 5470 5466 5463 5459 5455 5452 5449 5446 5442 5440 5438 5435 5434 5433 5432 5432 5432 5433 5432 5433 5434 5435 5437 5438 5440 5440 5442 5443 5445 5447 5449 5451 5453